Wind_Speed
17 16 14 13 13 11 9 8 6 5 5 5 5 4 4 5 5 6 7 4 6 5 6 3 4 7 7 2 3 2 3 5 9 3 3 8 8 2 6 6 1 5 5 4 30
19 17 16 14 13 12 10 9 7 6 5 6 6 4 3 3 5 12 8 9 9 6 6 8 7 10 4 6 4 5 4 6 7 5 2 9 8 7 2 4 4 6 10 15 27
21 19 17 16 13 13 11 10 8 7 6 6 6 5 3 2 4 1 12 9 8 9 7 7 6 9 8 4 5 5 5 6 5 9 7 8 8 9 6 7 8 12 11 14 20
23 21 18 16 14 12 11 10 8 7 7 8 7 4 3 3 4 1 5 6 7 8 5 4 5 5 6 6 4 3 3 3 4 5 4 3 1 7 10 4 6 11 17 18 14
26 24 21 17 15 12 11 10 8 7 8 9 7 4 3 4 4 1 2 4 6 7 6 6 6 8 7 6 5 4 3 4 6 3 3 6 5 8 9 11 4 5 16 17 16
27 26 23 20 15 13 12 9 8 7 8 9 7 4 4 6 3 3 4 7 4 6 5 7 2 1 4 4 3 4 4 5 3 4 2 3 5 3 8 12 9 6 11 12 14
30 29 26 22 17 14 12 9 8 7 8 8 7 4 6 5 4 3 7 6 8 4 5 0 2 0 6 3 1 2 3 6 7 6 2 4 6 14 10 3 10 11 9 11 13
33 30 27 23 18 15 12 9 7 6 7 7 7 4 5 5 4 6 7 6 5 4 6 5 6 6 3 4 3 3 1 3 5 8 4 3 7 7 11 10 11 12 10 11 13
36 32 29 25 20 15 12 8 7 7 6 6 3 4 3 3 4 8 8 8 12 9 5 7 1 4 2 3 2 4 4 7 5 8 5 7 7 2 4 10 10 9 11 12 12
40 34 31 26 22 17 12 9 7 6 4 2 5 2 4 4 7 8 7 16 4 9 4 4 3 5 3 5 5 5 5 5 3 6 6 6 15 14 7 9 11 10 11 13 14
44 37 33 28 24 19 16 9 3 3 9 5 3 2 3 5 8 7 6 6 6 5 5 5 4 8 10 10 6 3 4 5 4 3 2 8 15 16 12 11 13 13 11 10 12
47 40 35 31 26 23 18 4 4 3 4 7 1 2 3 4 4 7 9 7 7 6 6 3 8 9 4 6 4 2 4 5 3 4 3 6 15 19 17 14 14 12 13 11 8
50 43 37 32 27 22 17 11 4 2 3 5 5 4 4 5 3 12 7 3 6 8 11 6 2 6 4 4 4 4 5 4 2 4 4 6 8 5 8 8 12 11 9 15 12
54 47 40 34 20 16 13 26 7 2 3 7 7 6 6 3 3 6 10 2 3 11 9 6 4 5 4 4 6 5 4 3 2 2 4 1 6 5 8 7 5 7 7 8 10
56 50 46 46 16 14 13 26 8 1 5 4 7 3 5 6 10 4 2 2 6 6 6 4 6 6 4 2 7 2 3 4 1 1 3 2 1 7 4 4 1 3 2 7 9
57 54 51 39 19 20 18 27 4 3 10 4 5 7 7 4 3 5 5 0 3 4 5 4 3 2 3 4 3 9 4 3 2 1 1 6 6 4 4 3 4 3 1 2 7
63 62 57 42 13 30 31 10 2 8 2 6 5 8 10 6 5 6 11 9 8 7 6 3 4 2 4 7 2 3 4 3 3 2 6 4 1 8 10 8 4 9 7 5 6
64 64 55 37 34 39 25 5 8 4 4 3 6 9 8 7 4 7 10 10 11 6 7 8 4 9 6 2 7 7 6 5 7 4 3 3 6 6 8 1 5 6 7 8 8
63 52 33 28 46 49 14 9 13 5 7 10 8 5 6 5 5 6 10 7 13 12 8 7 4 3 6 4 2 5 3 1 5 1 3 5 7 9 5 7 7 8 8 8 8
32 16 6 40 50 38 12 19 6 3 4 5 7 6 11 9 9 11 13 9 7 19 3 4 5 2 2 1 2 1 2 4 2 2 5 4 2 6 2 4 5 5 7 7 7
12 5 9 37 38 14 12 9 5 4 4 7 5 6 5 7 8 7 8 2 11 17 11 3 5 1 4 8 9 2 2 1 2 3 5 1 5 7 8 5 6 5 7 8 9
3 4 14 33 8 4 10 8 4 10 4 4 3 5 8 9 7 7 11 1 4 7 10 2 5 5 5 3 3 1 6 7 5 5 3 3 6 2 6 5 3 6 4 4 7
4 3 5 6 7 10 2 5 4 9 9 7 7 4 3 7 4 5 7 1 0 5 9 8 3 3 3 1 2 5 6 4 4 2 7 5 5 1 4 1 4 4 1 3 3
4 4 1 1 1 7 6 6 7 2 7 5 4 4 4 3 1 6 3 3 4 3 5 5 2 4 7 5 6 6 8 10 6 4 5 12 5 10 8 7 7 1 4 8 8
1 3 4 8 6 2 4 7 6 8 1 7 1 5 8 4 3 4 3 2 5 5 5 3 5 2 2 6 5 4 7 14 15 18 6 2 8 9 12 12 10 6 5 6 6
2 3 1 3 9 5 7 6 11 4 9 8 4 12 4 8 7 10 8 3 4 1 1 1 2 2 2 5 5 4 9 10 14 12 12 20 27 17 17 8 9 14 7 9 5
1 2 1 8 8 8 5 5 7 10 2 4 9 8 12 14 4 5 4 7 10 9 6 5 5 3 3 2 4 10 13 14 8 9 14 15 23 13 8 13 14 15 5 8 12
Wind_Direction
228 226 231 236 242 243 245 248 250 257 255 213 208 223 247 269 238 218 236 218 214 223 184 147 190 211 218 137 287 285 284 250 253 175 104 122 175 279 340 112 167 140 56 67 150
229 229 229 232 239 244 246 246 243 236 240 208 203 220 251 280 250 245 239 236 223 196 169 198 183 183 205 178 203 208 212 273 13 61 119 150 201 158 150 204 184 161 100 134 148
229 229 227 229 232 242 246 247 243 220 214 216 206 210 216 199 258 191 216 226 207 186 178 244 224 195 211 163 204 214 245 5 56 32 1 151 201 153 177 220 204 195 163 165 160
229 226 227 227 229 236 245 250 249 223 207 209 209 215 211 169 221 122 189 210 196 178 195 217 234 201 220 196 165 277 37 10 26 36 335 170 147 214 192 228 358 196 173 165 177
230 230 226 226 226 230 243 249 251 234 213 197 202 203 165 204 256 169 195 181 165 162 203 202 205 209 218 203 114 230 133 58 65 62 302 7 265 247 233 230 131 287 139 169 180
227 226 227 223 223 226 236 243 249 243 206 200 192 201 262 238 156 176 168 153 166 183 197 231 252 137 37 52 219 10 30 109 150 172 159 227 248 73 245 232 162 177 159 175 187
224 221 224 220 218 222 230 234 244 233 198 190 193 179 265 269 159 162 146 154 164 217 180 62 322 346 137 132 74 117 252 183 189 185 190 208 255 231 222 189 195 179 202 187 193
222 218 218 219 214 216 223 227 226 203 188 186 183 189 270 187 177 143 146 129 139 148 114 140 108 80 33 130 153 221 205 238 100 141 132 203 264 195 206 189 212 191 196 204 199
219 215 213 216 211 209 213 216 181 169 177 170 179 229 225 153 178 174 169 142 128 117 106 123 149 110 160 187 170 221 255 202 179 186 124 200 275 153 335 172 214 225 207 207 204
215 212 208 210 206 201 199 150 138 136 165 183 276 222 160 183 140 153 169 151 129 138 122 188 153 154 214 188 210 203 218 240 243 179 207 222 257 269 226 219 222 227 228 207 206
211 208 206 203 202 191 168 137 155 204 226 206 171 124 116 100 130 184 160 168 148 198 167 200 190 205 197 208 262 349 339 334 95 30 250 238 259 268 262 219 222 217 221 230 207
208 204 201 196 195 188 179 229 179 138 172 209 306 90 98 199 128 167 178 187 178 178 157 130 236 218 88 182 186 218 275 270 73 131 180 286 283 267 259 250 232 210 218 216 203
206 200 195 189 186 187 205 215 242 174 219 180 187 188 176 190 175 175 176 230 202 205 179 175 127 111 147 137 152 218 217 244 229 208 214 296 282 251 256 233 236 232 205 206 194
201 192 189 176 168 190 219 203 257 201 273 183 202 206 152 215 193 120 205 251 205 212 160 238 136 151 159 191 175 222 338 95 89 36 267 241 285 263 258 264 218 231 225 199 189
197 189 182 173 163 177 199 190 199 252 255 107 126 126 163 176 129 231 103 135 195 184 146 195 153 159 163 169 175 159 113 107 105 238 335 212 338 265 160 258 54 67 231 227 193
196 188 180 172 166 182 173 169 159 70 237 146 122 157 150 180 119 118 160 232 320 90 60 78 325 18 73 61 30 146 104 87 92 45 359 210 166 270 217 190 124 129 54 322 165
185 177 180 171 170 162 157 127 96 214 229 189 172 166 184 156 142 177 171 176 163 138 177 128 161 98 164 93 33 223 135 355 343 15 223 51 8 252 287 296 176 181 168 169 169
184 177 175 169 166 155 151 100 209 211 178 216 136 150 182 141 179 191 162 190 243 240 152 159 247 164 184 213 175 197 169 169 210 202 242 69 228 248 219 80 81 112 134 160 167
177 171 165 171 158 143 139 188 214 180 157 140 113 122 208 163 139 159 196 210 196 207 184 171 174 17 37 5 46 176 189 136 95 65 59 223 265 299 295 207 187 195 174 180 182
168 144 100 157 152 140 155 200 223 168 153 137 158 179 181 176 157 180 181 207 202 191 183 160 109 339 101 289 60 153 201 86 348 212 256 270 252 238 197 180 194 215 209 169 157
108 95 130 152 147 152 185 210 178 199 151 160 167 140 174 171 181 200 198 312 200 182 176 224 111 141 142 204 175 163 199 247 149 178 197 245 249 224 203 185 180 119 166 165 165
70 102 157 153 144 214 187 164 236 169 183 171 192 113 165 162 172 213 208 344 17 130 177 141 105 151 193 82 45 273 199 167 146 231 232 138 266 37 111 112 81 92 124 123 158
86 105 167 179 172 188 136 139 152 155 176 165 184 149 117 154 174 198 171 334 208 148 162 183 202 101 19 5 13 217 193 188 112 94 201 160 247 49 67 331 256 238 354 131 192
122 121 75 145 292 178 152 154 143 304 166 165 119 96 114 126 312 179 128 41 10 34 358 104 149 213 198 143 132 186 198 190 159 190 215 226 284 301 299 266 268 205 187 176 198
91 138 170 187 203 164 166 159 137 156 263 148 186 217 155 135 114 174 93 103 31 3 16 131 194 130 129 113 120 166 184 193 206 222 214 162 234 227 246 263 285 235 212 194 202
135 144 85 129 141 155 168 184 173 150 154 188 179 188 190 161 187 182 146 171 164 39 106 270 160 83 356 150 151 211 214 190 210 227 247 258 263 252 249 254 268 274 158 212 229
88 32 206 141 154 169 186 154 165 138 262 166 164 147 194 213 105 84 88 127 147 152 161 166 140 106 224 87 73 275 191 195 194 198 209 231 248 248 252 240 250 262 223 215 222
Height
766 768 770 771 773 773 773 772 772 772 772 772 773 774 775 775 775 776 774 772 772 772 773 775 777 777 777 777 777 775 794 796 785 781 784 787 795 792 794 803 801 805 809 812 817
764 766 767 769 771 772 772 772 771 770 771 772 773 774 775 775 775 773 771 770 771 772 774 775 775 776 778 777 779 784 796 786 776 772 779 788 792 796 801 802 806 807 812 815 818
761 764 765 767 768 771 771 771 770 769 770 772 773 774 775 775 775 767 767 769 770 771 772 773 773 775 777 774 779 779 790 783 781 783 784 786 793 793 802 805 798 803 808 814 818
758 761 763 765 766 769 770 771 769 769 770 772 773 774 774 775 777 766 767 768 769 770 773 773 772 777 778 784 774 787 780 783 788 792 789 788 787 791 795 793 788 789 795 808 815
753 758 761 763 765 767 769 769 769 769 770 770 773 774 774 773 767 766 767 768 769 771 772 772 774 775 780 775 780 787 783 787 794 795 794 792 793 793 789 786 788 788 792 800 807
747 753 758 761 763 765 767 768 769 768 769 770 771 773 775 772 766 765 766 768 770 771 771 771 770 769 775 778 784 786 784 788 793 794 795 798 795 796 785 782 788 789 793 797 801
742 747 753 758 760 763 765 766 768 768 768 769 771 772 771 765 765 764 766 767 769 771 771 772 771 771 778 787 786 786 790 792 791 792 794 797 799 789 782 777 782 788 790 791 796
737 742 748 755 758 761 763 764 765 767 768 769 771 772 767 764 765 765 766 767 769 771 771 773 773 777 780 787 787 790 789 793 788 792 797 799 790 773 769 778 780 782 786 787 789
732 738 744 751 755 760 762 763 765 767 769 770 771 770 761 763 764 765 766 766 769 772 774 774 774 782 786 789 793 790 797 788 792 787 795 801 787 777 772 776 779 777 778 781 784
726 733 739 746 753 759 762 763 766 769 770 771 770 772 764 758 761 764 765 767 767 772 776 775 778 786 786 790 806 788 793 780 778 791 791 796 793 778 774 774 774 773 772 772 774
718 726 735 740 750 757 762 764 770 772 767 758 756 754 756 759 762 764 766 767 767 769 776 775 783 788 779 775 771 775 780 781 784 794 794 793 784 772 764 765 766 764 765 766 767
711 720 730 735 747 754 759 754 748 748 757 756 757 756 756 757 760 763 765 766 766 771 769 783 784 769 768 767 775 778 784 786 794 794 798 789 782 765 755 748 746 754 757 758 761
702 713 723 732 745 753 750 748 747 747 748 754 752 752 755 757 751 759 763 760 762 767 768 772 771 767 770 777 781 782 786 781 787 795 794 797 784 762 739 738 738 737 739 745 750
692 701 718 729 747 747 747 746 749 749 753 745 751 747 751 752 755 753 757 760 760 763 768 771 773 774 776 777 778 787 781 784 790 794 806 791 809 751 738 735 736 736 737 740 745
679 694 709 716 726 736 734 742 749 751 770 733 742 747 744 748 751 758 758 758 759 757 761 773 778 779 778 776 774 786 785 788 793 796 794 798 812 771 735 737 733 739 737 738 740
669 686 699 716 723 726 731 742 750 766 757 746 745 746 747 747 751 758 759 758 759 762 766 779 777 775 781 787 782 788 791 792 793 802 832 793 796 773 745 733 736 737 739 738 740
661 673 688 701 713 721 728 740 770 751 723 748 743 740 740 746 752 750 756 761 762 777 778 778 780 784 781 791 789 787 792 824 825 841 826 796 800 772 741 735 728 738 742 740 741
656 667 678 694 704 711 724 751 756 712 730 728 726 736 738 740 746 749 755 758 753 745 762 776 787 784 779 775 786 794 789 806 813 813 802 808 808 760 731 726 727 730 735 740 744
654 662 675 686 695 704 731 759 709 719 718 723 729 739 741 737 741 747 747 743 738 741 745 757 767 784 783 780 782 789 801 784 821 854 826 787 763 735 726 728 730 733 736 740 745
655 662 677 682 691 699 727 716 725 700 703 709 720 729 739 744 740 742 743 727 727 727 728 729 781 786 789 784 785 785 782 805 817 812 818 782 761 758 730 728 728 731 734 737 741
656 672 686 686 692 696 701 703 717 701 702 707 713 728 724 739 734 738 732 722 717 723 731 731 750 796 788 787 783 798 799 793 788 791 792 792 773 730 728 725 727 728 731 736 741
660 677 687 688 697 702 693 699 695 699 705 703 704 713 723 730 732 733 725 722 721 723 738 740 755 792 780 779 778 776 773 782 794 790 797 799 776 723 726 726 725 730 732 732 736
671 688 690 689 679 688 698 697 697 698 702 705 704 703 715 726 734 728 720 734 730 728 738 742 762 795 785 783 786 782 774 769 795 796 791 791 763 730 730 729 729 734 734 739 741
667 680 692 694 693 683 687 692 704 702 697 702 708 710 719 726 731 732 735 742 741 736 736 734 755 741 730 735 759 775 767 767 778 783 764 740 756 737 732 734 728 730 732 736 742
660 667 671 679 686 685 682 685 695 702 707 704 715 709 708 728 732 733 740 748 746 746 745 743 748 756 752 747 746 746 758 761 767 757 773 749 752 750 738 734 730 733 733 735 736
659 663 673 669 676 682 680 684 684 696 697 702 702 706 708 715 712 724 732 737 735 752 751 749 748 753 753 753 759 762 755 761 760 760 762 754 740 731 723 726 729 727 738 737 742
664 663 663 667 674 680 677 680 682 689 699 694 695 703 709 707 714 715 723 727 732 739 747 750 748 749 746 750 754 746 745 749 754 752 743 748 717 716 726 725 726 725 732 734 731